Home   Weather   Witzenhausen   Past weeks

Flag for Germany Past Weather in Witzenhausen, Hesse, Germany — Yesterday and Last 2 Weeks

Now
48 °F

Broken clouds.


Feels Like: 46 °F
Forecast: 35 / 51 °F
Wind: 5 mph from North

Location: Kassel / Calden

Current Time: Apr 28, 2017 at 1:59:53 pm

Latest Report: Apr 28, 2017 at 1:20 pm


Visibility: N/A

Pressure: 29.89 "Hg

Humidity: 50%

Dew Point: 30 °F

Location of WitzenhausenLocation

Past Weather in Witzenhausen — Graph

°F

Witzenhausen Temperature Yesterday

Maximum temperature yesterday: 50 °F (at 5:20 pm)
Minimum temperature yesterday: 32 °F (at 4:50 am)
Average temperature yesterday: 42 °F

High & Low Weather Summary for the Past Weeks

 TemperatureHumidityPressure
High57 °F (Apr 24, 4:20 pm)100% (Apr 14, 7:20 am)30.60 "Hg (Apr 14, 7:20 am)
Low25 °F (Apr 20, 5:20 am)37% (Apr 26, 5:20 pm)29.65 "Hg (Apr 25, 6:50 am)
Average43 °F67%30.09 "Hg
* Reported Apr 13 12:20 pm — Apr 28 12:50 pm, Witzenhausen, Weather by CustomWeather, © 2017

Note: Actual official high and low records may vary slightly from our data, if they occured in-between our weather recording intervals... More about our weather records

Advertising

Witzenhausen Weather History for the Previous 24 Hours

Scroll right to see more
 ConditionsComfort  
Time TempWeatherWind HumidityBarometerVisibility
12:50 pm
Fri, Apr 28
48 °FBroken clouds.6 mph54%29.92 "HgN/A
12:20 pm48 °FBroken clouds.5 mph50%29.92 "HgN/A
11:50 am50 °FScattered clouds.5 mph50%29.92 "HgN/A
11:20 am46 °FScattered clouds.3 mph53%29.92 "HgN/A
10:50 am46 °FPassing clouds.5 mph57%29.92 "HgN/A
10:20 am46 °FPassing clouds.5 mph53%29.92 "HgN/A
9:20 am43 °FSunny.2 mph66%29.92 "Hg10 mi
8:50 am39 °FSunny.2 mph75%29.92 "Hg10 mi
8:20 am36 °FSunny.1 mph87%29.92 "Hg10 mi
7:50 am34 °FSunny.1 mph81%29.92 "Hg10 mi
7:20 am32 °FSunny.2 mph80%29.92 "Hg10 mi
3:20 am30 °FClear.1 mph80%29.95 "Hg10 mi
2:50 am30 °FClear.1 mph86%29.95 "Hg10 mi
2:20 am34 °FClear.1 mph70%29.95 "Hg10 mi
12:50 am34 °FClear.8 mph70%29.95 "Hg10 mi
12:20 am36 °FClear.5 mph65%29.95 "Hg10 mi
11:50 pm
Thu, Apr 27
34 °FClear.2 mph70%29.95 "Hg10 mi
11:20 pm36 °FClear.3 mph70%29.98 "Hg10 mi
10:50 pm39 °FClear.1 mph56%29.95 "Hg10 mi
10:20 pm37 °FClear.1 mph65%29.95 "Hg10 mi
9:50 pm41 °FPassing clouds.3 mph53%29.95 "HgN/A
8:50 pm43 °FClear.6 mph49%29.95 "Hg10 mi
8:20 pm45 °FSunny.7 mph46%29.95 "Hg10 mi
7:50 pm45 °FScattered clouds.8 mph46%29.95 "HgN/A
7:20 pm48 °FScattered clouds.13 mph37%29.95 "HgN/A
6:50 pm48 °FScattered clouds.9 mph37%29.95 "HgN/A
6:20 pm48 °FScattered clouds.8 mph37%29.95 "HgN/A
5:50 pm48 °FScattered clouds.9 mph40%29.95 "HgN/A
5:20 pm50 °FBroken clouds.10 mph37%29.95 "HgN/A
4:50 pm48 °FPartly sunny.9 mph40%29.95 "HgN/A
4:20 pm48 °FBroken clouds.9 mph46%29.95 "HgN/A
3:50 pm48 °FBroken clouds.9 mph46%29.95 "HgN/A
3:20 pm48 °FBroken clouds.10 mph46%29.95 "HgN/A
2:50 pm48 °FBroken clouds.10 mph46%29.95 "HgN/A
2:20 pm48 °FBroken clouds.12 mph50%29.95 "HgN/A
1:50 pm46 °FBroken clouds.7 mph53%29.95 "HgN/A
1:20 pm46 °FBroken clouds.9 mph53%29.95 "HgN/A
Weather by CustomWeather, © 2017

See weather overviewHow to use our weather pages